Madison, MN

7:39 AM CST on December 08, 2019 (GMT -0600)
Madison-Lac Qui Parle County

Weather History for KDXX - November, 2019

Change the Weather History Date:

Tuesday, November 19, 2019

  Actual Average (KAQP) Record (KAQP)
Temperature  
Mean Temperature 40 °F -  
Max Temperature 44 °F 35 °F 57 °F (2012)
Min Temperature 35 °F 19 °F -2 °F (2018)
Degree Days  
Heating Degree Days 26    
Moisture  
Dew Point 36 °F    
Average Humidity 85    
Maximum Humidity 100    
Minimum Humidity 76    
Precipitation  
Precipitation 0.00 in - - ()
Sea Level Pressure  
Sea Level Pressure 29.84 in    
Wind  
Wind Speed 8 mph (NW)    
Max Wind Speed 13 mph    
Max Gust Speed 17 mph    
Visibility 10 miles    
Events      
Averages and records for this station are not official NWS values.
T = Trace of Precipitation, MM = Missing Value Source: NWS Daily Summary

Daily Weather History Graph

Daily Weather History Graph

Search for Another Location

Airport or City:

Astronomy

Nov. 19, 2019 Rise Set
Actual Time 7:27 AM CST 4:52 PM CST
Civil Twilight 6:55 AM CST 5:24 PM CST
Nautical Twilight 6:19 AM CST 6:00 PM CST
Astronomical Twilight 5:44 AM CST 6:35 PM CST
Moon 11:52 PM CST (11/19) 1:36 PM CST (11/19)
Length of Visible Light 10h 29m
Length of Day
9h 24m
Waning Gibbous, 51% of the Moon is Illuminated
Nov 19
Waning Gibbous
Nov 19
Last Quarter
Nov 26
New
Dec 4
First Quarter
Dec 11
Full

Hourly Weather History & Observations

Time (CST) Temp. Windchill Dew Point Humidity Pressure Visibility Wind Dir Wind Speed Gust Speed Precip Events Conditions
12:35 AM 37.4 °F 30.3 °F 37.4 °F 100% 29.69 in 10.0 mi West 10.4 mph - N/A   Clear
12:36 AM 37.4 °F 30.8 °F 37.4 °F 100% 29.70 in 10.0 mi West 9.2 mph - N/A   Clear
12:59 AM 37.4 °F 31.4 °F 35.6 °F 93% 29.70 in 10.0 mi West 8.1 mph - N/A   Clear
1:17 AM 37.4 °F 30.8 °F 35.6 °F 93% 29.70 in 10.0 mi West 9.2 mph - N/A   Clear
1:36 AM 37.4 °F 30.8 °F 35.6 °F 93% 29.70 in 10.0 mi West 9.2 mph - N/A   Clear
1:55 AM 37.4 °F 30.8 °F 35.6 °F 93% 29.70 in 10.0 mi WNW 9.2 mph - N/A   Clear
1:56 AM 37.4 °F 30.8 °F 35.6 °F 93% 29.70 in 10.0 mi WNW 9.2 mph - N/A   Clear
2:15 AM 37.4 °F 32.1 °F 33.8 °F 87% 29.70 in 10.0 mi WNW 6.9 mph - N/A   Clear
2:19 AM 37.4 °F 32.1 °F 33.8 °F 87% 29.70 in 10.0 mi WNW 6.9 mph - N/A   Clear
2:37 AM 37.4 °F 32.1 °F 33.8 °F 87% 29.71 in 10.0 mi West 6.9 mph - N/A   Clear
2:56 AM 37.4 °F 30.8 °F 33.8 °F 87% 29.71 in 10.0 mi WNW 9.2 mph - N/A   Clear
3:15 AM 37.4 °F 31.4 °F 33.8 °F 87% 29.71 in 10.0 mi West 8.1 mph - N/A   Clear
3:16 AM 37.4 °F 31.4 °F 33.8 °F 87% 29.71 in 10.0 mi West 8.1 mph - N/A   Clear
3:35 AM 35.6 °F 29.2 °F 33.8 °F 93% 29.72 in 10.0 mi West 8.1 mph - N/A   Clear
3:36 AM 35.6 °F 29.2 °F 33.8 °F 93% 29.72 in 10.0 mi West 8.1 mph - N/A   Clear
3:58 AM 35.6 °F 28.0 °F 33.8 °F 93% 29.73 in 10.0 mi West 10.4 mph - N/A   Clear
4:16 AM 35.6 °F 27.5 °F 33.8 °F 93% 29.73 in 10.0 mi WNW 11.5 mph - N/A   Clear
4:35 AM 37.4 °F 29.8 °F 33.8 °F 87% 29.73 in 10.0 mi WNW 11.5 mph - N/A   Clear
4:55 AM 37.4 °F 29.8 °F 33.8 °F 87% 29.74 in 10.0 mi WNW 11.5 mph - N/A   Clear
4:56 AM 37.4 °F 29.8 °F 33.8 °F 87% 29.74 in 10.0 mi WNW 11.5 mph - N/A   Clear
5:15 AM 37.4 °F 30.3 °F 33.8 °F 87% 29.74 in 10.0 mi WNW 10.4 mph - N/A   Clear
5:19 AM 37.4 °F 29.8 °F 33.8 °F 87% 29.74 in 10.0 mi WNW 11.5 mph - N/A   Clear
5:38 AM 37.4 °F 30.3 °F 33.8 °F 87% 29.75 in 10.0 mi WNW 10.4 mph - N/A   Clear
6:15 AM 35.6 °F 28.6 °F 33.8 °F 93% 29.76 in 10.0 mi WNW 9.2 mph - N/A   Clear
6:16 AM 35.6 °F 28.6 °F 33.8 °F 93% 29.76 in 10.0 mi WNW 9.2 mph - N/A   Clear
6:35 AM 37.4 °F 30.8 °F 33.8 °F 87% 29.76 in 10.0 mi WNW 9.2 mph - N/A   Scattered Clouds
6:58 AM 37.4 °F 30.3 °F 33.8 °F 87% 29.77 in 10.0 mi WNW 10.4 mph - N/A   Overcast
7:17 AM 37.4 °F 31.4 °F 33.8 °F 87% 29.78 in 10.0 mi WNW 8.1 mph - N/A   Overcast
7:36 AM 37.4 °F 30.8 °F 33.8 °F 87% 29.79 in 10.0 mi WNW 9.2 mph - N/A   Overcast
7:55 AM 37.4 °F 30.8 °F 33.8 °F 87% 29.79 in 10.0 mi WNW 9.2 mph - N/A   Overcast
7:56 AM 37.4 °F 30.8 °F 33.8 °F 87% 29.79 in 10.0 mi WNW 9.2 mph - N/A   Overcast
8:15 AM 37.4 °F 30.3 °F 33.8 °F 87% 29.80 in 10.0 mi WNW 10.4 mph - N/A   Overcast
8:37 AM 37.4 °F 30.8 °F 35.6 °F 93% 29.81 in 10.0 mi WNW 9.2 mph - N/A   Overcast
8:55 AM 37.4 °F 31.4 °F 35.6 °F 93% 29.81 in 10.0 mi WNW 8.1 mph - N/A   Overcast
9:15 AM 39.2 °F 33.6 °F 35.6 °F 87% 29.81 in 10.0 mi WNW 8.1 mph - N/A   Overcast
9:35 AM 39.2 °F 33.6 °F 35.6 °F 87% 29.82 in 10.0 mi WNW 8.1 mph - N/A   Overcast
9:36 AM 39.2 °F 33.6 °F 35.6 °F 87% 29.82 in 10.0 mi WNW 8.1 mph - N/A   Overcast
9:59 AM 39.2 °F 34.2 °F 35.6 °F 87% 29.83 in 10.0 mi WNW 6.9 mph - N/A   Overcast
10:16 AM 39.2 °F 33.0 °F 37.4 °F 93% 29.83 in 10.0 mi WNW 9.2 mph - N/A   Overcast
10:36 AM 42.8 °F 38.0 °F 37.4 °F 81% 29.84 in 10.0 mi WNW 8.1 mph - N/A   Overcast
10:55 AM 42.8 °F 38.0 °F 37.4 °F 81% 29.85 in 10.0 mi WNW 8.1 mph - N/A   Light Drizzle
11:15 AM 44.6 °F 39.2 °F 37.4 °F 76% 29.85 in 10.0 mi NW 10.4 mph - N/A   Overcast
11:19 AM 44.6 °F 38.8 °F 37.4 °F 76% 29.85 in 10.0 mi NW 11.5 mph - N/A   Overcast
11:37 AM 44.6 °F 39.7 °F 39.2 °F 81% 29.85 in 10.0 mi NW 9.2 mph - N/A   Overcast
11:56 AM 44.6 °F 38.4 °F 39.2 °F 81% 29.86 in 10.0 mi NNW 12.7 mph - N/A   Overcast
12:15 PM 44.6 °F 39.2 °F 39.2 °F 81% 29.86 in 10.0 mi NW 10.4 mph - N/A   Overcast
12:16 PM 44.6 °F 38.4 °F 39.2 °F 81% 29.86 in 10.0 mi NW 12.7 mph 17.3 mph N/A   Overcast
12:35 PM 44.6 °F 38.8 °F 39.2 °F 81% 29.86 in 10.0 mi NW 11.5 mph - N/A   Overcast
12:36 PM 44.6 °F 38.4 °F 39.2 °F 81% 29.86 in 10.0 mi NW 12.7 mph - N/A   Overcast
12:58 PM 44.6 °F 39.2 °F 37.4 °F 76% 29.86 in 10.0 mi WNW 10.4 mph - N/A   Overcast
1:16 PM 44.6 °F 39.7 °F 37.4 °F 76% 29.87 in 10.0 mi NW 9.2 mph - N/A   Overcast
1:36 PM 44.6 °F 41.4 °F 39.2 °F 81% 29.86 in 10.0 mi NW 5.8 mph - N/A   Overcast
1:55 PM 44.6 °F 40.2 °F 39.2 °F 81% 29.87 in 10.0 mi NW 8.1 mph - N/A   Overcast
1:56 PM 44.6 °F 40.2 °F 39.2 °F 81% 29.87 in 10.0 mi NW 8.1 mph - N/A   Overcast
2:15 PM 44.6 °F 41.4 °F 39.2 °F 81% 29.87 in 10.0 mi NNW 5.8 mph - N/A   Overcast
2:19 PM 44.6 °F 40.7 °F 39.2 °F 81% 29.87 in 10.0 mi NW 6.9 mph - N/A   Overcast
2:39 PM 44.6 °F 40.2 °F 37.4 °F 76% 29.88 in 10.0 mi WNW 8.1 mph - N/A   Overcast
2:55 PM 44.6 °F - 37.4 °F 76% 29.87 in 10.0 mi Calm Calm - N/A   Overcast
2:56 PM 44.6 °F 41.4 °F 37.4 °F 76% 29.87 in 10.0 mi WNW 5.8 mph - N/A   Overcast
3:15 PM 44.6 °F 43.1 °F 37.4 °F 76% 29.86 in 10.0 mi NW 3.5 mph - N/A   Overcast
3:35 PM 44.6 °F 41.4 °F 37.4 °F 76% 29.87 in 10.0 mi NNW 5.8 mph - N/A   Overcast
3:55 PM 42.8 °F 39.3 °F 37.4 °F 81% 29.86 in 10.0 mi North 5.8 mph - N/A   Overcast
3:56 PM 42.8 °F 39.3 °F 37.4 °F 81% 29.86 in 10.0 mi North 5.8 mph - N/A   Overcast
4:15 PM 42.8 °F 39.3 °F 37.4 °F 81% 29.87 in 10.0 mi North 5.8 mph - N/A   Overcast
4:35 PM 42.8 °F 38.0 °F 35.6 °F 76% 29.89 in 10.0 mi North 8.1 mph - N/A   Overcast
4:36 PM 42.8 °F 38.0 °F 35.6 °F 76% 29.89 in 10.0 mi North 8.1 mph - N/A   Overcast
4:55 PM 42.8 °F - 35.6 °F 76% 29.89 in 10.0 mi Calm Calm - N/A   Overcast
4:56 PM 42.8 °F - 35.6 °F 76% 29.89 in 10.0 mi Calm Calm - N/A   Overcast
5:15 PM 42.8 °F - 35.6 °F 76% 29.89 in 10.0 mi Calm Calm - N/A   Overcast
5:35 PM 42.8 °F - 35.6 °F 76% 29.91 in 10.0 mi Calm Calm - N/A   Overcast
5:36 PM 42.8 °F - 35.6 °F 76% 29.91 in 10.0 mi Calm Calm - N/A   Overcast
5:55 PM 42.8 °F - 35.6 °F 76% 29.91 in 10.0 mi Calm Calm - N/A   Overcast
5:56 PM 42.8 °F - 35.6 °F 76% 29.91 in 10.0 mi Calm Calm - N/A   Overcast
6:15 PM 42.8 °F 40.1 °F 35.6 °F 76% 29.91 in 10.0 mi NNE 4.6 mph - N/A   Overcast
6:35 PM 41.0 °F - 35.6 °F 81% 29.91 in 10.0 mi Calm Calm - N/A   Overcast
7:15 PM 41.0 °F - 35.6 °F 81% 29.93 in 10.0 mi Calm Calm - N/A   Overcast
7:35 PM 41.0 °F - 35.6 °F 81% 29.93 in 10.0 mi Calm Calm - N/A   Overcast
7:55 PM 41.0 °F 38.0 °F 35.6 °F 81% 29.93 in 10.0 mi NE 4.6 mph - N/A   Overcast
7:56 PM 41.0 °F 38.0 °F 35.6 °F 81% 29.93 in 10.0 mi NE 4.6 mph - N/A   Overcast
8:15 PM 41.0 °F 38.0 °F 35.6 °F 81% 29.93 in 10.0 mi ENE 4.6 mph - N/A   Overcast
8:35 PM 41.0 °F - 35.6 °F 81% 29.94 in 10.0 mi Calm Calm - N/A   Overcast
8:36 PM 41.0 °F 39.0 °F 35.6 °F 81% 29.94 in 10.0 mi East 3.5 mph - N/A   Overcast
8:55 PM 39.2 °F - 35.6 °F 87% 29.95 in 10.0 mi Calm Calm - N/A   Overcast
9:15 PM 41.0 °F 39.0 °F 35.6 °F 81% 29.96 in 10.0 mi East 3.5 mph - N/A   Overcast
9:35 PM 39.2 °F - 35.6 °F 87% 29.96 in 10.0 mi Calm Calm - N/A   Overcast
9:36 PM 39.2 °F - 35.6 °F 87% 29.96 in 10.0 mi Calm Calm - N/A   Overcast
9:55 PM 39.2 °F - 35.6 °F 87% 29.96 in 10.0 mi Calm Calm - N/A   Overcast
10:15 PM 39.2 °F - 35.6 °F 87% 29.97 in 10.0 mi Calm Calm - N/A   Overcast
10:35 PM 39.2 °F - 35.6 °F 87% 29.97 in 10.0 mi Calm Calm - N/A   Overcast
10:55 PM 39.2 °F 35.9 °F 35.6 °F 87% 29.96 in 10.0 mi East 4.6 mph - N/A   Overcast
11:15 PM 39.2 °F 35.9 °F 35.6 °F 87% 29.96 in 10.0 mi East 4.6 mph - N/A   Overcast
11:16 PM 39.2 °F 35.9 °F 35.6 °F 87% 29.96 in 10.0 mi East 4.6 mph - N/A   Overcast
11:35 PM 37.4 °F 34.9 °F 35.6 °F 93% 29.96 in 10.0 mi East 3.5 mph - N/A   Overcast
11:55 PM 37.4 °F 33.8 °F 35.6 °F 93% 29.96 in 10.0 mi East 4.6 mph - N/A   Overcast
11:56 PM 37.4 °F 33.8 °F 35.6 °F 93% 29.96 in 10.0 mi East 4.6 mph - N/A   Overcast